This is the latest recevied weather packets stored in our database for station/object OM5AST-13. If no packets are shown the sender has not sent any weather packets the latest 10 day(s).
| Time | Temp. | Humidity | Pressure | Rain* | Wind** | Luminosity | Snow |
|---|---|---|---|---|---|---|---|
| 1788575035 | 25.56° C | 46% | - | 0 mm | - | 0 W/m² | - |
| 1788573835 | 25.56° C | 45% | - | 0 mm | - | 0 W/m² | - |
| 1788572635 | 25.56° C | 44% | - | 0 mm | - | 0 W/m² | - |
| 1788571435 | 25° C | 47% | - | 0 mm | - | 0 W/m² | - |
| 1788570235 | 24.44° C | 52% | - | 0 mm | - | 0 W/m² | - |
| 1788569035 | 24.44° C | 53% | - | 0 mm | - | 0 W/m² | - |
| 1788567835 | 24.44° C | 53% | - | 0 mm | - | 0 W/m² | - |
| 1788566635 | 24.44° C | 53% | - | 0 mm | - | 0 W/m² | - |
| 1788565435 | 24.44° C | 53% | - | 0 mm | - | 0 W/m² | - |
| 1788564235 | 25° C | 52% | - | 0 mm | - | 0 W/m² | - |
| 1788563035 | 25° C | 51% | - | 0 mm | - | 0 W/m² | - |
| 1788561835 | 25° C | 50% | - | 0 mm | - | 0 W/m² | - |
| 1788560635 | 25.56° C | 49% | - | 0 mm | - | 0 W/m² | - |
| 1788559435 | 25.56° C | 48% | - | 0 mm | - | 0 W/m² | - |
| 1788558235 | 26.11° C | 48% | - | 0 mm | - | 0 W/m² | - |
| 1788557035 | 26.11° C | 46% | - | 0 mm | - | 0 W/m² | - |
| 1788555835 | 26.67° C | 46% | - | 0 mm | - | 0 W/m² | - |
| 1788554635 | 26.67° C | 45% | - | 0 mm | - | 0 W/m² | - |
| 1788553435 | 26.67° C | 45% | - | 0 mm | - | 0 W/m² | - |
| 1788552235 | 26.67° C | 45% | - | 0 mm | - | 0 W/m² | - |
| 1788551035 | 27.22° C | 43% | - | 0 mm | - | 0 W/m² | - |
| 1788549835 | 27.78° C | 42% | - | 0 mm | - | 0 W/m² | - |
| 1788548635 | 27.78° C | 41% | - | 0 mm | - | 0 W/m² | - |
| 1788547435 | 28.33° C | 41% | - | 0 mm | - | 0 W/m² | - |
| 1788546236 | 28.33° C | 40% | - | 0 mm | - | 0 W/m² | - |
* Rain latest hour (hover to see other rain measurements)
** Current wind speed in m/s (hover to see current wind gust speed)